Showing default

COSMOS 1559, 14998

Orbit data source: Space-Track

COSMOS 1559, 14998 is a payload satellite owned by GUKOS (CIS) in LEO that was launched on Mon, 28 May 1984 UTC via a KOSMOS 11K65M launch vehicle from the Plesetsk Missile And Space Complex (PKMTR). Payload-class satellites include a variety of spacecraft equipped with specific instruments for various scientific and technological missions. These include communications satellites like Starlink; space stations such as the ISS; scientific satellites like the Hubble; Earth observation satellites from companies like Planet Labs, Umbra, and HawkEye 360; GPS; miniature CubeSats for education and research; and military/defense satellites.

Loading next visibility...
Identifier
14998, 1984-052A
Orbit
LEO
Country
Flag of CISCIS
Related business
Manufacturer
NPO PM
Mission
Spacecraft
Bus & Motor
STRELA-1 11F625, Unknown motor
Mass
60 kg wet, 60 kg dry
Launch date (UTC)
1984-05-28 (42 years ago)
Launch vehicle
KOSMOS 11K65M
Launch site
Plesetsk Missile And Space Complex (PKMTR)
Object type
Payload
Rocket body
Debris
Shape & HBR
Unknown
Radar Cross Section
Medium (>0.1 m² and <1 m²)

Expand to show TLE details & history
Last TLE update: 6 hours ago

TLE from 6 hours ago
0 COSMOS 1559
1 14998U 84052A   26127.07541942  .00000004  00000-0  14128-3 0  9993
2 14998  74.0128 237.2755 0025597 183.0844 349.6107 12.43979580904429
Epoch: 2026-05-07T01:48Z
TLE epoch observation values (Epoch: 2026-05-07T01:48:36.237Z)
Latitude
7.01064°
Longitude
163.18859°
Altitude
1,471.707 km
Speed
7.137 km/s
True Right ascension
03h 41m 03s
True Declination
6° 58' 22"
Sunlit
Object was in daylight at epoch
Visualization orbit readout
Latitude
Unknown
Longitude
Unknown
Altitude
Unknown
Speed
Unknown
Apparent Right ascension
Unknown
Apparent Declination
Unknown
Sunlit
N/A
Visualization observer readout
Local Sidereal Time
15:58:33
Azimuth
Unknown
Elevation
Unknown
Doppler factor
Unknown
Orbital elements
Apogee altitude
1,507.756 km
Perigee altitude
1,467.488 km
Semi-major axis
7,865.759 km
Eccentricity
0.00256
Inclination
74.0128°
RAAN
237.2755°
Arg. of periapsis
183.0844°
True anomaly
349.55764°
Mean anomaly
349.6107°
Eccentric anomaly
349.58419°
Mean motion
3.11123 °/min
Orbital period
115.71 mins
BSTAR
0.00014128
Loading maneuver chart data...
Computing Atmospheric mass density...
Loading historical data...
Loading historical data...
Loading historical data...
Loading historical data...
Loading historical data...
Loading historical data...
Loading historical data...

Documentation

Showing up to 5 results
|